| time (UTC) | temp F | wind direction | speed MPH | gust MPH | rain 1hr in | rain 24hr in | rain mn in | humidity % | barometer mb |
| 20260505030409 | 55 | 31 | 0.0 | 0.0 | 0.00 | 0.00 | 0.00 | 37 | |
| 20260505025910 | 55 | 31 | 0.0 | 0.0 | 0.00 | 0.00 | 0.00 | 37 | |
| 20260505025409 | 55 | 25 | 0.0 | 0.0 | 0.00 | 0.00 | 0.00 | 36 | |
| 20260505024909 | 55 | 20 | 0.0 | 0.0 | 0.00 | 0.00 | 0.00 | 36 | |
| 20260505024536 | 55 | 36 | 0.0 | 0.0 | 0.00 | 0.00 | 0.00 | 38 | |
| 20260505024410 | 55 | 36 | 0.0 | 0.0 | 0.00 | 0.00 | 0.00 | 38 | |
| 20260505023954 | 55 | 45 | 0.0 | 0.0 | 0.00 | 0.00 | 0.00 | 37 | |
| 20260505023909 | 55 | 45 | 0.0 | 0.0 | 0.00 | 0.00 | 0.00 | 37 | |
| 20260505023409 | 55 | 28 | 0.0 | 0.0 | 0.00 | 0.00 | 0.00 | 37 | |
| 20260505022909 | 55 | 36 | 0.0 | 0.0 | 0.00 | 0.00 | 0.00 | 38 | |
| 20260505022410 | 55 | 40 | 0.0 | 0.0 | 0.00 | 0.00 | 0.00 | 39 | |
| 20260505021909 | 55 | 41 | 0.0 | 0.0 | 0.00 | 0.00 | 0.00 | 40 | |
| 20260505021409 | 55 | 30 | 0.0 | 0.0 | 0.00 | 0.00 | 0.00 | 38 | |
| 20260505020909 | 55 | 35 | 0.0 | 0.0 | 0.00 | 0.00 | 0.00 | 39 | |
| 20260505020409 | 56 | 68 | 0.0 | 0.0 | 0.00 | 0.00 | 0.00 | 40 | |
| 20260505015909 | 56 | 100 | 0.0 | 0.0 | 0.00 | 0.00 | 0.00 | 40 | |
| 20260505015409 | 56 | 86 | 0.0 | 0.0 | 0.00 | 0.00 | 0.00 | 39 | |
| 20260505014909 | 56 | 54 | 0.0 | 0.0 | 0.00 | 0.00 | 0.00 | 40 | |
| 20260505014409 | 56 | 54 | 0.0 | 0.0 | 0.00 | 0.00 | 0.00 | 41 | |
| 20260505013909 | 56 | 52 | 0.0 | 0.0 | 0.00 | 0.00 | 0.00 | 40 | |
| 20260505013409 | 56 | 49 | 0.0 | 0.0 | 0.00 | 0.00 | 0.00 | 39 | |
| 20260505012909 | 56 | 46 | 0.0 | 0.0 | 0.00 | 0.00 | 0.00 | 39 | |
| 20260505012409 | 56 | 45 | 0.0 | 0.0 | 0.00 | 0.00 | 0.00 | 38 | |
| 20260505011909 | 56 | 40 | 0.0 | 0.0 | 0.00 | 0.00 | 0.00 | 37 | |
| 20260505011409 | 56 | 34 | 0.0 | 0.0 | 0.00 | 0.00 | 0.00 | 37 | |
| 20260505010909 | 56 | 41 | 0.0 | 4.0 | 0.00 | 0.00 | 0.00 | 41 | |
| 20260505010409 | 56 | 42 | 0.0 | 4.0 | 0.00 | 0.00 | 0.00 | 39 | |
| 20260505005909 | 56 | 27 | 0.0 | 4.0 | 0.00 | 0.00 | 0.00 | 36 | |
| 20260505005409 | 57 | 34 | 0.0 | 4.0 | 0.00 | 0.00 | 0.00 | 39 | |
| 20260505004909 | 58 | 18 | 0.0 | 0.0 | 0.00 | 0.00 | 0.00 | 36 | |
| 20260505004409 | 59 | 5 | 0.0 | 0.0 | 0.00 | 0.00 | 0.00 | 38 | |
| 20260505003909 | 60 | 20 | 0.0 | 0.0 | 0.00 | 0.00 | 0.00 | 40 | |
| 20260505003409 | 61 | 4 | 0.0 | 0.0 | 0.00 | 0.00 | 0.00 | 39 | |
| 20260505002909 | 62 | 38 | 0.0 | 0.0 | 0.00 | 0.00 | 0.00 | 38 | |
| 20260505002409 | 63 | 31 | 0.0 | 0.0 | 0.00 | 0.00 | 0.00 | 37 | |
| 20260505001909 | 64 | 8 | 0.0 | 0.0 | 0.00 | 0.00 | 0.00 | 35 | |
| 20260505001409 | 65 | 4 | 0.0 | 0.0 | 0.00 | 0.00 | 0.00 | 33 | |
| 20260505000909 | 67 | 358 | 0.0 | 0.0 | 0.00 | 0.00 | 0.00 | 32 | |
| 20260505000409 | 67 | 350 | 0.0 | 5.0 | 0.00 | 0.00 | 0.00 | 32 | |
| 20260504235909 | 68 | 358 | 0.0 | 11.0 | 0.00 | 0.00 | 0.00 | 32 | |
| 20260504235409 | 70 | 1 | 3.0 | 11.0 | 0.00 | 0.00 | 0.00 | 29 | |
| 20260504234909 | 71 | 350 | 3.0 | 10.0 | 0.00 | 0.00 | 0.00 | 27 | |
| 20260504234409 | 72 | 311 | 6.0 | 16.0 | 0.00 | 0.00 | 0.00 | 27 | |
| 20260504233909 | 72 | 282 | 8.0 | 18.0 | 0.00 | 0.00 | 0.00 | 27 | |
| 20260504233409 | 73 | 281 | 10.0 | 18.0 | 0.00 | 0.00 | 0.00 | 27 | |
| 20260504232909 | 74 | 286 | 10.0 | 18.0 | 0.00 | 0.00 | 0.00 | 26 | |
| 20260504232409 | 74 | 282 | 9.0 | 20.0 | 0.00 | 0.00 | 0.00 | 25 | |
| 20260504231909 | 74 | 273 | 12.0 | 20.0 | 0.00 | 0.00 | 0.00 | 26 | |
| 20260504231410 | 75 | 273 | 9.0 | 20.0 | 0.00 | 0.00 | 0.00 | 26 | |
| 20260504230909 | 75 | 266 | 10.0 | 20.0 | 0.00 | 0.00 | 0.00 | 25 | |
| 20260504230409 | 76 | 275 | 10.0 | 20.0 | 0.00 | 0.00 | 0.00 | 25 | |
| 20260504225909 | 77 | 277 | 8.0 | 16.0 | 0.00 | 0.00 | 0.00 | 25 | |
| 20260504225409 | 77 | 274 | 9.0 | 15.0 | 0.00 | 0.00 | 0.00 | 25 | |
| 20260504224909 | 77 | 305 | 6.0 | 15.0 | 0.00 | 0.00 | 0.00 | 24 | |
| 20260504224409 | 78 | 283 | 8.0 | 15.0 | 0.00 | 0.00 | 0.00 | 25 | |
| 20260504223909 | 78 | 278 | 7.0 | 18.0 | 0.00 | 0.00 | 0.00 | 25 | |
| 20260504223756 | 78 | 277 | 8.0 | 22.0 | 0.00 | 0.00 | 0.00 | 26 | |
| 20260504223409 | 78 | 277 | 8.0 | 22.0 | 0.00 | 0.00 | 0.00 | 26 | |
| 20260504223326 | 79 | 286 | 7.0 | 22.0 | 0.00 | 0.00 | 0.00 | 25 | |
| 20260504222909 | 79 | 286 | 7.0 | 22.0 | 0.00 | 0.00 | 0.00 | 25 | |
| 20260504222826 | 79 | 283 | 8.0 | 20.0 | 0.00 | 0.00 | 0.00 | 25 | |
| 20260504222415 | 79 | 262 | 12.0 | 20.0 | 0.00 | 0.00 | 0.00 | 26 | |
| 20260504222409 | 79 | 283 | 8.0 | 20.0 | 0.00 | 0.00 | 0.00 | 25 | |
| 20260504221910 | 80 | 286 | 6.0 | 13.0 | 0.00 | 0.00 | 0.00 | 25 | |
| 20260504221409 | 80 | 286 | 6.0 | 13.0 | 0.00 | 0.00 | 0.00 | 25 | |
| 20260504221326 | 80 | 269 | 8.0 | 15.0 | 0.00 | 0.00 | 0.00 | 26 | |
| 20260504220910 | 81 | 268 | 9.0 | 20.0 | 0.00 | 0.00 | 0.00 | 27 | |
| 20260504220409 | 81 | 268 | 9.0 | 20.0 | 0.00 | 0.00 | 0.00 | 27 | |
| 20260504220359 | 81 | 252 | 11.0 | 20.0 | 0.00 | 0.00 | 0.00 | 27 | |
| 20260504215926 | 81 | 240 | 11.0 | 20.0 | 0.00 | 0.00 | 0.00 | 28 | |
| 20260504215909 | 81 | 252 | 11.0 | 20.0 | 0.00 | 0.00 | 0.00 | 27 | |
| 20260504215429 | 82 | 254 | 10.0 | 16.0 | 0.00 | 0.00 | 0.00 | 28 | |
| 20260504215409 | 81 | 240 | 11.0 | 20.0 | 0.00 | 0.00 | 0.00 | 28 | |
| 20260504215021 | 82 | 248 | 10.0 | 15.0 | 0.00 | 0.00 | 0.00 | 28 | |
| 20260504214909 | 82 | 254 | 10.0 | 16.0 | 0.00 | 0.00 | 0.00 | 28 | |
| 20260504214409 | 82 | 248 | 10.0 | 15.0 | 0.00 | 0.00 | 0.00 | 28 | |
| 20260504213947 | 82 | 275 | 8.0 | 16.0 | 0.00 | 0.00 | 0.00 | 27 | |
| 20260504213909 | 82 | 266 | 8.0 | 14.0 | 0.00 | 0.00 | 0.00 | 27 | |
| 20260504213421 | 83 | 270 | 9.0 | 16.0 | 0.00 | 0.00 | 0.00 | 28 | |
| 20260504213410 | 82 | 275 | 8.0 | 16.0 | 0.00 | 0.00 | 0.00 | 27 | |
| 20260504212923 | 83 | 267 | 7.0 | 12.0 | 0.00 | 0.00 | 0.00 | 28 | |
| 20260504212909 | 83 | 270 | 9.0 | 16.0 | 0.00 | 0.00 | 0.00 | 28 | |
| 20260504212255 | 83 | 271 | 3.0 | 10.0 | 0.00 | 0.00 | 0.00 | 28 | |
| 20260504211924 | 82 | 270 | 3.0 | 8.0 | 0.00 | 0.00 | 0.00 | 28 | |
| 20260504211909 | 83 | 271 | 3.0 | 10.0 | 0.00 | 0.00 | 0.00 | 28 | |
| 20260504211410 | 82 | 270 | 3.0 | 8.0 | 0.00 | 0.00 | 0.00 | 28 | |
| 20260504211407 | 82 | 270 | 6.0 | 13.0 | 0.00 | 0.00 | 0.00 | 28 | |
| 20260504211121 | 82 | 264 | 7.0 | 13.0 | 0.00 | 0.00 | 0.00 | 29 | |
| 20260504210910 | 82 | 270 | 6.0 | 13.0 | 0.00 | 0.00 | 0.00 | 28 | |
| 20260504210419 | 82 | 262 | 8.0 | 13.0 | 0.00 | 0.00 | 0.00 | 29 | |
| 20260504210410 | 82 | 264 | 7.0 | 13.0 | 0.00 | 0.00 | 0.00 | 29 | |
| 20260504205909 | 82 | 262 | 8.0 | 13.0 | 0.00 | 0.00 | 0.00 | 29 | |
| 20260504205724 | 83 | 273 | 6.0 | 11.0 | 0.00 | 0.00 | 0.00 | 28 | |
| 20260504204909 | 83 | 273 | 6.0 | 11.0 | 0.00 | 0.00 | 0.00 | 28 | |
| 20260504204549 | 83 | 277 | 4.0 | 11.0 | 0.00 | 0.00 | 0.00 | 27 | |
| 20260504204409 | 83 | 277 | 4.0 | 11.0 | 0.00 | 0.00 | 0.00 | 27 | |
| 20260504203912 | 83 | 257 | 4.0 | 11.0 | 0.00 | 0.00 | 0.00 | 27 | |
| 20260504203410 | 83 | 276 | 3.0 | 8.0 | 0.00 | 0.00 | 0.00 | 27 | |
| 20260504202909 | 83 | 300 | 3.0 | 10.0 | 0.00 | 0.00 | 0.00 | 27 | |
| 20260504202410 | 84 | 266 | 5.0 | 10.0 | 0.00 | 0.00 | 0.00 | 29 | |
| 20260504201911 | 84 | 312 | 4.0 | 10.0 | 0.00 | 0.00 | 0.00 | 27 | |
| 20260504201409 | 84 | 292 | 5.0 | 9.0 | 0.00 | 0.00 | 0.00 | 28 | |
| 20260504200909 | 83 | 277 | 5.0 | 9.0 | 0.00 | 0.00 | 0.00 | 28 | |
| 20260504200410 | 83 | 275 | 4.0 | 10.0 | 0.00 | 0.00 | 0.00 | 29 | |
| 20260504200007 | 83 | 253 | 5.0 | 10.0 | 0.00 | 0.00 | 0.00 | 29 | |
| 20260504195909 | 83 | 253 | 5.0 | 10.0 | 0.00 | 0.00 | 0.00 | 29 | |
| 20260504195409 | 83 | 229 | 5.0 | 10.0 | 0.00 | 0.00 | 0.00 | 29 | |
| 20260504194909 | 83 | 240 | 6.0 | 10.0 | 0.00 | 0.00 | 0.00 | 29 | |
| 20260504194409 | 83 | 265 | 5.0 | 10.0 | 0.00 | 0.00 | 0.00 | 29 | |
| 20260504193910 | 83 | 246 | 6.0 | 10.0 | 0.00 | 0.00 | 0.00 | 30 | |
| 20260504193409 | 83 | 240 | 7.0 | 10.0 | 0.00 | 0.00 | 0.00 | 31 | |
| 20260504192909 | 83 | 257 | 5.0 | 8.0 | 0.00 | 0.00 | 0.00 | 30 | |
| 20260504192500 | 84 | 260 | 5.0 | 8.0 | 0.00 | 0.00 | 0.00 | 30 | |
| 20260504192457 | 84 | 257 | 4.0 | 7.0 | 0.00 | 0.00 | 0.00 | 30 | |
| 20260504192409 | 84 | 260 | 5.0 | 8.0 | 0.00 | 0.00 | 0.00 | 30 | |
| 20260504191909 | 84 | 257 | 4.0 | 7.0 | 0.00 | 0.00 | 0.00 | 30 | |
| 20260504191409 | 83 | 264 | 4.0 | 7.0 | 0.00 | 0.00 | 0.00 | 29 | |
| 20260504191101 | 82 | 315 | 1.0 | 5.0 | 0.00 | 0.00 | 0.00 | 27 | |
| 20260504191059 | 82 | 9 | 2.0 | 6.0 | 0.00 | 0.00 | 0.00 | 27 | |
| 20260504190909 | 82 | 315 | 1.0 | 5.0 | 0.00 | 0.00 | 0.00 | 27 | |
| 20260504190409 | 82 | 9 | 2.0 | 6.0 | 0.00 | 0.00 | 0.00 | 27 | |
| 20260504185909 | 82 | 44 | 2.0 | 6.0 | 0.00 | 0.00 | 0.00 | 27 | |
| 20260504185409 | 82 | 268 | 2.0 | 6.0 | 0.00 | 0.00 | 0.00 | 29 | |
| 20260504184909 | 81 | 264 | 3.0 | 7.0 | 0.00 | 0.00 | 0.00 | 30 | |
| 20260504184409 | 80 | 262 | 4.0 | 11.0 | 0.00 | 0.00 | 0.00 | 31 | |
| 20260504183909 | 79 | 246 | 5.0 | 11.0 | 0.00 | 0.00 | 0.00 | 31 | |
| 20260504183410 | 79 | 254 | 5.0 | 12.0 | 0.00 | 0.00 | 0.00 | 30 | |
| 20260504182909 | 79 | 245 | 7.0 | 12.0 | 0.00 | 0.00 | 0.00 | 31 | |
| 20260504182409 | 78 | 246 | 7.0 | 12.0 | 0.00 | 0.00 | 0.00 | 31 | |
| 20260504181909 | 78 | 249 | 8.0 | 13.0 | 0.00 | 0.00 | 0.00 | 31 | |
| 20260504181409 | 79 | 237 | 8.0 | 13.0 | 0.00 | 0.00 | 0.00 | 31 | |
| 20260504180911 | 79 | 238 | 8.0 | 12.0 | 0.00 | 0.00 | 0.00 | 31 | |
| 20260504180411 | 79 | 235 | 7.0 | 12.0 | 0.00 | 0.00 | 0.00 | 31 | |
| 20260504175911 | 79 | 252 | 6.0 | 11.0 | 0.00 | 0.00 | 0.00 | 31 | |
| 20260504175410 | 78 | 252 | 7.0 | 11.0 | 0.00 | 0.00 | 0.00 | 31 | |
| 20260504174910 | 78 | 268 | 6.0 | 13.0 | 0.00 | 0.00 | 0.00 | 30 | |
| 20260504174410 | 77 | 251 | 7.0 | 14.0 | 0.00 | 0.00 | 0.00 | 31 | |
| 20260504173909 | 77 | 256 | 9.0 | 14.0 | 0.00 | 0.00 | 0.00 | 31 | |
| 20260504173409 | 77 | 246 | 7.0 | 12.0 | 0.00 | 0.00 | 0.00 | 32 | |
| 20260504172909 | 77 | 257 | 8.0 | 15.0 | 0.00 | 0.00 | 0.00 | 31 | |
| 20260504172409 | 76 | 260 | 8.0 | 16.0 | 0.00 | 0.00 | 0.00 | 32 | |
| 20260504171909 | 76 | 249 | 9.0 | 16.0 | 0.00 | 0.00 | 0.00 | 32 | |
| 20260504171409 | 77 | 249 | 8.0 | 14.0 | 0.00 | 0.00 | 0.00 | 31 | |
| 20260504170909 | 77 | 255 | 9.0 | 14.0 | 0.00 | 0.00 | 0.00 | 32 | |
| 20260504170409 | 78 | 236 | 8.0 | 14.0 | 0.00 | 0.00 | 0.00 | 32 | |
| 20260504160410 | 79 | 234 | 9.0 | 14.0 | 0.00 | 0.00 | 0.00 | 32 | |
| 20260504150909 | 78 | 240 | 8.0 | 15.0 | 0.00 | 0.00 | 0.00 | 32 | |
| 20260504150719 | 78 | 238 | 7.0 | 15.0 | 0.00 | 0.00 | 0.00 | 32 | |
| 20260504150409 | 78 | 238 | 7.0 | 15.0 | 0.00 | 0.00 | 0.00 | 32 | |
| 20260504150317 | 77 | 230 | 3.0 | 8.0 | 0.00 | 0.00 | 0.00 | 32 | |
| 20260504140911 | 73 | 222 | 0.0 | 0.0 | 0.00 | 0.00 | 0.00 | 33 | |
| 20260504140635 | 73 | 225 | 0.0 | 0.0 | 0.00 | 0.00 | 0.00 | 33 | |
| 20260504140409 | 73 | 225 | 0.0 | 0.0 | 0.00 | 0.00 | 0.00 | 33 | |
| 20260504140255 | 72 | 223 | 0.0 | 0.0 | 0.00 | 0.00 | 0.00 | 33 | |
| 20260504130409 | 63 | 108 | 0.0 | 0.0 | 0.00 | 0.00 | 0.00 | 34 | |
| 20260504130314 | 63 | 328 | 0.0 | 0.0 | 0.00 | 0.00 | 0.00 | 33 | |
| 20260504120157 | 64 | 330 | 0.0 | 0.0 | 0.00 | 0.00 | 0.00 | 30 | |
| 20260504110654 | 64 | 90 | 0.0 | 0.0 | 0.00 | 0.00 | 0.00 | 28 | |
| 20260504110409 | 64 | 90 | 0.0 | 0.0 | 0.00 | 0.00 | 0.00 | 28 | |
| 20260504110222 | 64 | 122 | 0.0 | 0.0 | 0.00 | 0.00 | 0.00 | 32 | |
| 20260504100409 | 64 | 311 | 0.0 | 0.0 | 0.00 | 0.00 | 0.00 | 27 | |
| 20260504100238 | 64 | 335 | 0.0 | 0.0 | 0.00 | 0.00 | 0.00 | 26 | |
| 20260504081926 | 65 | 59 | 0.0 | 0.0 | 0.00 | 0.00 | 0.00 | 25 | |
| 20260504081909 | 65 | 38 | 0.0 | 0.0 | 0.00 | 0.00 | 0.00 | 25 | |
| 20260504081409 | 65 | 59 | 0.0 | 0.0 | 0.00 | 0.00 | 0.00 | 25 | |
| 20260504081337 | 65 | 309 | 0.0 | 0.0 | 0.00 | 0.00 | 0.00 | 25 | |
| 20260504080910 | 65 | 309 | 0.0 | 0.0 | 0.00 | 0.00 | 0.00 | 25 | |
| 20260504080755 | 65 | 54 | 0.0 | 0.0 | 0.00 | 0.00 | 0.00 | 25 | |
| 20260504080409 | 65 | 54 | 0.0 | 0.0 | 0.00 | 0.00 | 0.00 | 25 | |
| 20260504080330 | 65 | 59 | 0.0 | 0.0 | 0.00 | 0.00 | 0.00 | 25 | |
| 20260504070409 | 67 | 71 | 0.0 | 0.0 | 0.00 | 0.00 | 0.00 | 25 | |
| 20260504060238 | 68 | 260 | 0.0 | 0.0 | 0.00 | 0.00 | 0.00 | 26 | |
| 20260504050751 | 70 | 320 | 0.0 | 0.0 | 0.00 | 0.00 | 0.00 | 24 | |
| 20260504050409 | 70 | 320 | 0.0 | 0.0 | 0.00 | 0.00 | 0.00 | 24 | |
| 20260504050315 | 70 | 289 | 0.0 | 0.0 | 0.00 | 0.00 | 0.00 | 24 | |
| 20260504045909 | 70 | 289 | 0.0 | 0.0 | 0.00 | 0.00 | 0.00 | 24 | |
| 20260504045831 | 70 | 273 | 0.0 | 0.0 | 0.00 | 0.00 | 0.00 | 24 | |
| 20260504045440 | 71 | 267 | 0.0 | 1.0 | 0.00 | 0.00 | 0.00 | 24 | |
| 20260504045409 | 70 | 273 | 0.0 | 0.0 | 0.00 | 0.00 | 0.00 | 24 | |
| 20260504044956 | 71 | 249 | 0.0 | 5.0 | 0.00 | 0.00 | 0.00 | 24 | |
| 20260504044921 | 71 | 249 | 0.0 | 5.0 | 0.00 | 0.00 | 0.00 | 24 | |
| 20260504044909 | 71 | 267 | 0.0 | 1.0 | 0.00 | 0.00 | 0.00 | 24 | |
| 20260504044409 | 71 | 249 | 0.0 | 5.0 | 0.00 | 0.00 | 0.00 | 24 | |
| 20260504044315 | 71 | 251 | 0.0 | 5.0 | 0.00 | 0.00 | 0.00 | 24 | |
| 20260504043909 | 71 | 251 | 0.0 | 5.0 | 0.00 | 0.00 | 0.00 | 24 | |
| 20260504043757 | 72 | 243 | 0.0 | 8.0 | 0.00 | 0.00 | 0.00 | 24 | |
| 20260504043409 | 72 | 243 | 0.0 | 8.0 | 0.00 | 0.00 | 0.00 | 24 | |
| 20260504043326 | 72 | 230 | 0.0 | 8.0 | 0.00 | 0.00 | 0.00 | 24 | |
| 20260504042909 | 72 | 230 | 0.0 | 8.0 | 0.00 | 0.00 | 0.00 | 24 | |
| 20260504042409 | 72 | 233 | 5.0 | 10.0 | 0.00 | 0.00 | 0.00 | 23 | |
| 20260504041909 | 72 | 233 | 5.0 | 10.0 | 0.00 | 0.00 | 0.00 | 23 | |
| 20260504041821 | 72 | 240 | 0.0 | 6.0 | 0.00 | 0.00 | 0.00 | 23 | |
| 20260504041410 | 72 | 230 | 1.0 | 6.0 | 0.00 | 0.00 | 0.00 | 23 | |
| 20260504040911 | 73 | 237 | 0.0 | 6.0 | 0.00 | 0.00 | 0.00 | 23 | |
| 20260504040909 | 72 | 230 | 1.0 | 6.0 | 0.00 | 0.00 | 0.00 | 23 | |
| 20260504040829 | 73 | 237 | 0.0 | 6.0 | 0.00 | 0.00 | 0.00 | 23 | |
| 20260504040439 | 73 | 246 | 1.0 | 7.0 | 0.00 | 0.00 | 0.00 | 23 | |
| 20260504040409 | 73 | 237 | 0.0 | 6.0 | 0.00 | 0.00 | 0.00 | 23 | |
| 20260504040004 | 73 | 234 | 2.0 | 7.0 | 0.00 | 0.00 | 0.00 | 23 | |
| 20260504035909 | 73 | 246 | 1.0 | 7.0 | 0.00 | 0.00 | 0.00 | 23 | |
| 20260504035411 | 74 | 238 | 2.0 | 8.0 | 0.00 | 0.00 | 0.00 | 23 | |
| 20260504034909 | 74 | 238 | 2.0 | 8.0 | 0.00 | 0.00 | 0.00 | 23 | |
| 20260504034843 | 74 | 235 | 1.0 | 8.0 | 0.00 | 0.00 | 0.00 | 23 | |
| 20260504034409 | 74 | 235 | 1.0 | 8.0 | 0.00 | 0.00 | 0.00 | 23 | |
| 20260504034346 | 74 | 232 | 3.0 | 8.0 | 0.00 | 0.00 | 0.00 | 23 | |
| 20260504033909 | 74 | 232 | 3.0 | 8.0 | 0.00 | 0.00 | 0.00 | 23 | |
| 20260504033807 | 74 | 233 | 5.0 | 10.0 | 0.00 | 0.00 | 0.00 | 23 | |
| 20260504033410 | 74 | 236 | 6.0 | 10.0 | 0.00 | 0.00 | 0.00 | 23 | |
| 20260504033008 | 74 | 240 | 4.0 | 10.0 | 0.00 | 0.00 | 0.00 | 24 | |
| 20260504032917 | 74 | 240 | 4.0 | 10.0 | 0.00 | 0.00 | 0.00 | 24 | |
| 20260504032909 | 74 | 236 | 6.0 | 10.0 | 0.00 | 0.00 | 0.00 | 23 | |
| 20260504032410 | 74 | 240 | 4.0 | 10.0 | 0.00 | 0.00 | 0.00 | 24 | |
| 20260504032358 | 75 | 236 | 6.0 | 12.0 | 0.00 | 0.00 | 0.00 | 23 | |
| 20260504031916 | 75 | 236 | 8.0 | 12.0 | 0.00 | 0.00 | 0.00 | 23 | |
| 20260504031909 | 75 | 236 | 6.0 | 12.0 | 0.00 | 0.00 | 0.00 | 23 | |
| 20260504031453 | 75 | 233 | 7.0 | 12.0 | 0.00 | 0.00 | 0.00 | 23 | |
| 20260504031415 | 75 | 233 | 7.0 | 12.0 | 0.00 | 0.00 | 0.00 | 23 | |
| 20260504031411 | 75 | 236 | 8.0 | 12.0 | 0.00 | 0.00 | 0.00 | 23 | |
| 20260504030910 | 75 | 233 | 7.0 | 12.0 | 0.00 | 0.00 | 0.00 | 23 |